Aérodrome :
LOGIN :

S'inscrire | Disclaimer

   EN    FR    IT 

 










Légende :    VFR   VFR Marginal   IFR   IFR Intensif   IFR Très Intensif
Visi : 
Plafond : 
>= 8 km
>= 3000ft
5 à 8 km
1000 à 3000 ft
1500m à 5 km
500 à 1000 ft
800 à 1500m
200 à 500 ft
< 800m
< 200 ft
Symboles :   Orages  Brouillard  Fortes neiges  Fortes précipitations  Vent > 20 kt
SIGMETs :   Divers  Orages  Givrage  Turbulence  Onde Orograph.  Cendres Volcan.







- Altitude de l'aérodrome : 296 ft
- Code IATA : GKE


ETNG - Geilenkirchen

DERNIER METAR :
  • 190150Z 26006KT 9999 BKN014 08/04 Q1017

METARs EXPIRÉS :
  • 190050Z 24008KT CAVOK 09/02 Q1016
  • 182350Z 23007KT CAVOK 10/02 Q1016

TAF TAF ETNG
Valide du 19 à 00h jusqu'au 19 à 15h UTC


182300Z 1900/1915 22008G15KT CAVOK
BECMG 1823/1902 BKN025
BECMG 1902/1904 7000 -DZRA SCT006 BKN010
BECMG 1907/1909 24010G15KT 9999 NSW SCT015 SCT030
BECMG 1909/1911 25012G22KT
Pas de NOTAMs connus pour ce terrain.



MET'MAP, la Météo Aéronautique d'un coup d'oeil ! - Copyright ORBIFLY Décembre 2007 - Disclaimer

ORBIFLY MET'MAP TEAM :

Programmation & Développement : Alexandra Zaïnal
Conception & Développement : Baudouin d'Aumeries
Co-Programmation & Développement : Marc-Olivier Méhu
Soutien technique & logistique : Manuel Goepfert

Contact : metmap@orbifly.com




SOURCES & CREDITS :

   NOAA